Fenwick

*Note: All times are displayed in the local standard time of the station location.
**Rain - Equipment is designed to accurately record liquid precipitation; under conditions when precipitation is not in liquid form, the data displayed may not properly reflect rainfall values.

Date Max Temp
(°C)
Min Temp
(°C)
Avg Temp
(°C)
Rain (mm) Avg RH (%)
Fri, Feb 15, 2019 4.9 -5.1 0.6 2.6 75.2
Thu, Feb 14, 2019 5.8 -5.7 -0.4 0.0 68.7
Wed, Feb 13, 2019 0.0 -5.5 -3.4 0.0 84.1
Tue, Feb 12, 2019 2.2 -5.6 -2.1 9.8 91.6
Mon, Feb 11, 2019 -2.6 -5.2 -4.1 0.0 74.5
Sun, Feb 10, 2019 -3.4 -11.1 -6.8 0.0 75.0
Sat, Feb 09, 2019 -5.2 -11.0 -7.9 0.0 69.5
DateTime Avg Temp (°C) Rain (mm) RH (%)
Sat, Feb 16, 2019 15:00 -2.1 0.0 59.5
Sat, Feb 16, 2019 14:00 -2.6 0.0 61.0
Sat, Feb 16, 2019 13:00 -3.4 0.0 62.7
Sat, Feb 16, 2019 12:00 -3.9 0.0 64.2
Sat, Feb 16, 2019 11:00 -4.1 0.0 65.9
Sat, Feb 16, 2019 10:00 -4.2 0.0 65.6
Sat, Feb 16, 2019 09:00 -4.4 0.0 71.6
Sat, Feb 16, 2019 08:00 -5.0 0.0 80.3
Sat, Feb 16, 2019 07:00 -4.4 0.0 85.2
Sat, Feb 16, 2019 06:00 -4.2 0.0 84.1
Sat, Feb 16, 2019 05:00 -4.3 0.0 82.1
Sat, Feb 16, 2019 04:00 -4.4 0.0 80.7
Sat, Feb 16, 2019 03:00 -4.4 0.0 79.0
Sat, Feb 16, 2019 02:00 -4.5 0.0 76.3
Sat, Feb 16, 2019 01:00 -4.6 0.0 74.4
Sat, Feb 16, 2019 00:00 -4.8 0.0 72.8
Fri, Feb 15, 2019 23:00 -5.1 0.0 71.5
Fri, Feb 15, 2019 22:00 -4.6 0.0 68.5
Fri, Feb 15, 2019 21:00 -3.8 0.0 68.3
Fri, Feb 15, 2019 20:00 -2.8 0.0 69.4
Fri, Feb 15, 2019 19:00 -2.5 0.0 66.5
Fri, Feb 15, 2019 18:00 -1.5 0.0 66.4
Fri, Feb 15, 2019 17:00 -0.9 0.0 61.3
Fri, Feb 15, 2019 16:00 -0.4 0.0 66.5
Fri, Feb 15, 2019 15:00 -0.3 0.0 67.6
Fri, Feb 15, 2019 14:00 0.5 0.0 65.7
Fri, Feb 15, 2019 13:00 1.2 0.0 66.2
Fri, Feb 15, 2019 12:00 1.7 0.0 69.2
Fri, Feb 15, 2019 11:00 2.6 0.0 78.4
Fri, Feb 15, 2019 10:00 3.3 0.2 91.2
Fri, Feb 15, 2019 09:00 2.8 0.0 99.7
Fri, Feb 15, 2019 08:00 3.4 0.0 97.7
Fri, Feb 15, 2019 07:00 3.3 0.0 99.2
Fri, Feb 15, 2019 06:00 3.4 1.4 96.8
Fri, Feb 15, 2019 05:00 3.4 0.6 95.8
Fri, Feb 15, 2019 04:00 4.1 0.4 81.0
Fri, Feb 15, 2019 03:00 4.5 0.0 69.0
Fri, Feb 15, 2019 02:00 4.0 0.0 59.0
Fri, Feb 15, 2019 01:00 4.0 0.0 57.3
Fri, Feb 15, 2019 00:00 5.1 0.0 54.2
Thu, Feb 14, 2019 23:00 4.5 0.0 56.2
Thu, Feb 14, 2019 22:00 3.7 0.0 58.0
Thu, Feb 14, 2019 21:00 3.1 0.0 61.3
Thu, Feb 14, 2019 20:00 2.0 0.0 67.2
Thu, Feb 14, 2019 19:00 0.6 0.0 74.3
Thu, Feb 14, 2019 18:00 2.1 0.0 64.8
Thu, Feb 14, 2019 17:00 3.5 0.0 56.2
Thu, Feb 14, 2019 16:00 3.6 0.0 52.9


asterix Register now to access more data! asterix